Weather in Summit

United States     40°44′30″N   74°21′35″W
temp.,
°C
wind,
m/s
gust,
m/s
humid.,
%
clouds,
%
prec.,
mm/h
press.,
hPa
HPBL,
m
16 may, sun
sun1623:00+15wsw2460100 0.0 1024122
02:00+15wsw146098 0.1 1024152
05:00+13w2556100 0.0 1024135
08:00+15sw1148100 0.0 1026174
11:00+21ssw2323100 0.0 10251018
14:00+23sw4423100 0.1 10242188
17:00+22wsw4428100 0.0 10232083
20:00+15ne3577100 0.7 1025203
17 may, mon
mon1723:00+14nne238593 0.3 102480
02:00+13wnw118510 0.3 102420
05:00+12nnw11830 0.0 102514
08:00+15nw11660 0.0 1026177
11:00+22s22360 0.0 10261530
14:00+24s432852 0.0 10242775
17:00+22sse453516 0.0 10241625
20:00+19wsw244716 0.0 1025380
18 may, tue
tue1823:00+16wsw136113 0.0 102685
02:00+15wsw2670100 0.0 1026216
05:00+13wsw267337 0.0 1026209
08:00+16wsw35595 0.0 1027350
11:00+22wsw34405 0.0 10261452
14:00+24w4537100 0.0 10242413
17:00+23wnw354087 0.0 10231625
20:00+21w365396 0.0 1024304
19 may, wed
wed1923:00+18nw24645 0.0 102589
02:00+17wnw25675 0.0 1025110
05:00+15nw27745 0.0 1025150
08:00+19nnw24555 0.0 1027305
11:00+26nnw23360 0.0 10261509
14:00+29nnw23260 0.0 10252467
17:00+29n23270 0.0 10242572
20:00+25ese11414 0.0 102538
20 may, thu
thu2023:00+22nw23570 0.0 102663
02:00+20wnw22660 0.0 102640
05:00+18nnw11715 0.0 102720
08:00+22nne2259100 0.0 1029261
11:00+26ese2240100 0.0 10291059
14:00+26se4341100 0.0 10281062
17:00+22se5654100 0.0 1028406
20:00+18se4668100 0.0 1029316